Weather History for Deadhorse, AK

Change the Weather History Date:

Tuesday, January 22, 2013

  Actual Average Record
Temperature  
Mean Temperature -14 °F -  
Max Temperature -11 °F -7 °F 28 °F (2008)
Min Temperature -17 °F -20 °F -47 °F (1990)
Degree Days  
Heating Degree Days 79    
Moisture  
Dew Point -21 °F    
Average Humidity 76    
Maximum Humidity 84    
Minimum Humidity 74    
Precipitation  
Precipitation 0.00 in - - ()
Sea Level Pressure  
Sea Level Pressure 30.57 in    
Wind  
Wind Speed 30 mph (ENE)    
Max Wind Speed 34 mph    
Max Gust Speed 41 mph    
Visibility 1 miles    
Events Fog , Snow    
Averages and records for this station are not official NWS values.
T = Trace of Precipitation, MM = Missing Value Source: NWS Daily Summary

Daily Weather History Graph

Daily Weather History Graph

Search for Another Location

Airport:

Trip Planner

Search our weather history database for the weather conditions in past years. The results will help you decide how hot, cold, wet, or windy it might be!

Date:

Astronomy

Jan. 22, 2013 Rise Set
Actual Time 11:43 AM AKST 2:28 PM AKST
Civil Twilight 9:49 AM AKST 4:22 PM AKST
Nautical Twilight 8:23 AM AKST 5:48 PM AKST
Astronomical Twilight 7:09 AM AKST 7:03 PM AKST
Moon No Moon Rise No Moon Set
Length of Visible Light 6h 33m
Length of Day
2h 44m
Waxing Gibbous, 84% of the Moon is Illuminated
Jan 22
Waxing Gibbous
Jan 26
Full
Feb 3
Last Quarter
Feb 9
New
Feb 17
First Quarter

Hourly Weather History & Observations

Time (AKST) Temp. Windchill Dew Point Humidity Pressure Visibility Wind Dir Wind Speed Gust Speed Precip Events Conditions
12:53 AM -11.0 °F -39.9 °F -16.1 °F 78% 30.61 in 1.0 mi ENE 27.6 mph - N/A Snow Blowing Snow
1:53 AM -11.0 °F -39.4 °F -17.0 °F 75% 30.61 in 1.2 mi ENE 26.5 mph - N/A Snow Blowing Snow
2:53 AM -11.9 °F -41.1 °F -17.0 °F 78% 30.61 in 1.2 mi ENE 27.6 mph - N/A Snow Blowing Snow
3:53 AM -13.0 °F -42.6 °F -18.9 °F 75% 30.60 in 1.5 mi ENE 27.6 mph 34.5 mph N/A Snow Blowing Snow
4:53 AM -13.0 °F -43.9 °F -18.9 °F 75% 30.59 in 1.2 mi ENE 31.1 mph - N/A Snow Blowing Snow
5:36 AM -14.8 °F -45.9 °F -20.2 °F 77% 30.58 in 1.0 mi ENE 29.9 mph - N/A Snow Blowing Snow
5:53 AM -14.1 °F -45.8 °F -18.9 °F 79% 30.58 in 0.8 mi ENE 32.2 mph 39.1 mph N/A Snow Blowing Snow
6:53 AM -14.1 °F -46.6 °F -18.9 °F 79% 30.57 in 0.8 mi ENE 34.5 mph - N/A Snow Blowing Snow
7:53 AM -14.1 °F -46.2 °F -18.9 °F 79% 30.58 in 0.8 mi ENE 33.4 mph - N/A Snow Blowing Snow
8:53 AM -13.0 °F -43.5 °F -18.9 °F 75% 30.58 in 0.8 mi ENE 29.9 mph 38.0 mph N/A Snow Blowing Snow
9:19 AM -14.8 °F -45.9 °F -18.4 °F 84% 30.57 in 0.8 mi ENE 29.9 mph 39.1 mph N/A Snow Blowing Snow
9:53 AM -14.1 °F -44.9 °F -20.0 °F 75% 30.58 in 0.8 mi ENE 29.9 mph 38.0 mph N/A Snow Blowing Snow
10:53 AM -14.1 °F -45.8 °F -20.0 °F 75% 30.56 in 0.5 mi ENE 32.2 mph 41.4 mph N/A Snow Blowing Snow
11:53 AM -15.0 °F -47.8 °F -20.9 °F 75% 30.57 in 0.5 mi ENE 34.5 mph 41.4 mph N/A Snow Blowing Snow
12:53 PM -16.1 °F -48.5 °F -20.9 °F 79% 30.57 in 0.5 mi ENE 32.2 mph 40.3 mph N/A Snow Blowing Snow
1:53 PM -16.1 °F -49.3 °F -22.0 °F 74% 30.57 in 0.5 mi ENE 34.5 mph 41.4 mph N/A Snow Blowing Snow
2:53 PM -16.1 °F -48.5 °F -22.0 °F 74% 30.56 in 0.5 mi ENE 32.2 mph 41.4 mph N/A Snow Blowing Snow
3:53 PM -17.0 °F -49.7 °F -22.0 °F 78% 30.55 in 0.5 mi ENE 32.2 mph - N/A Snow Blowing Snow
4:00 PM -16.6 °F -48.8 °F -22.0 °F 76% 30.54 in 0.5 mi ENE 31.1 mph - N/A Snow Blowing Snow
4:07 PM -16.6 °F -48.4 °F -22.0 °F 76% 30.53 in 0.5 mi ENE 29.9 mph - N/A Snow Blowing Snow
4:53 PM -17.0 °F -50.2 °F -23.1 °F 74% 30.54 in 0.5 mi ENE 33.4 mph 41.4 mph N/A Snow Blowing Snow
5:53 PM -17.0 °F -50.2 °F -23.1 °F 74% 30.54 in 0.5 mi ENE 33.4 mph 40.3 mph N/A Fog , Snow Blowing Snow
6:53 PM -17.0 °F -50.2 °F -23.1 °F 74% 30.54 in 0.5 mi ENE 33.4 mph - N/A Fog , Snow Blowing Snow
7:53 PM -17.0 °F -50.2 °F -23.1 °F 74% 30.54 in 0.5 mi ENE 33.4 mph 40.3 mph N/A Fog , Snow Blowing Snow
8:53 PM -17.0 °F -50.2 °F -23.1 °F 74% 30.55 in 0.5 mi ENE 33.4 mph 40.3 mph N/A Fog , Snow Blowing Snow
9:53 PM -17.0 °F -48.9 °F -22.0 °F 78% 30.56 in 0.5 mi ENE 29.9 mph - N/A Fog , Snow Blowing Snow
10:53 PM -16.1 °F -47.2 °F -22.0 °F 74% 30.56 in 0.8 mi ENE 28.8 mph - N/A Snow Blowing Snow
11:53 PM -16.1 °F -47.2 °F -22.0 °F 74% 30.56 in 0.8 mi ENE 28.8 mph - N/A Snow Blowing Snow